Flag for U.S.A. Weather past 2 weeks in Birmingham, Alabama, U.S.A.

66 °F

High level clouds.

Feels Like: 66 °F
Forecast: 57 / 65 °F
Wind: 5 mph from Southeast

Location: Birmingham International Airport

Current Time: Nov 30, 2015 at 8:15:52 PM

Latest Report: Nov 30, 2015 at 6:53 PM

Visibility: 10 mi

Pressure: 30.03 "Hg

Humidity: 78%

Dew point: 59 °F

Location of BirminghamLocation

Historic Weather in Birmingham — Graph


Birmingham temperature yesterday

Maximum temperature yesterday: 72 °F (at 1:53 PM)
Minimum temperature yesterday: 64 °F (at 3:53 AM)
Average temperature yesterday: 68 °F

Past Weeks' High & Low Weather Summary

High74 °F (Nov 27, 1:53 PM)100% (Nov 18, 5:53 PM)30.57 "Hg (Nov 18, 5:53 PM)
Low27 °F (Nov 23, 2:53 AM)20% (Nov 23, 1:53 PM)29.80 "Hg (Nov 18, 1:53 PM)
Average57 °F67%30.20 "Hg
* Reported Nov 15 5:53 PM — Nov 30 5:53 PM, Birmingham, Weather by CustomWeather, © 2015

Note: Actual official high and low records may vary slightly from our data, if they occured in-between our weather recording intervals... More about our weather records


Birmingham weather history for previous 24 hours

Time TempWeatherWind HumidityBarometerVisibility
5:53 PM
Mon, Nov 30
69 °FOvercast.3 mph70%30.03 "Hg10 mi
4:53 PM70 °FMostly cloudy.3 mph68%30.02 "Hg10 mi
3:53 PM72 °FOvercast.3 mph64%30.02 "Hg10 mi
2:53 PM73 °FMostly cloudy.10 mph59%30.02 "Hg10 mi
1:53 PM73 °FBroken clouds.7 mph64%30.02 "Hg10 mi
12:53 PM72 °FMostly cloudy.8 mph68%30.03 "Hg10 mi
11:53 AM70 °FMostly cloudy.8 mph79%30.06 "Hg10 mi
10:53 AM68 °FMostly cloudy.7 mph87%30.08 "Hg9 mi
9:53 AM65 °FLow clouds.7 mph97%30.10 "Hg7 mi
8:53 AM65 °FLow clouds.7 mph94%30.10 "Hg8 mi
7:53 AM65 °FLow clouds.6 mph94%30.08 "Hg10 mi
6:53 AM64 °FFog.7 mph100%30.06 "Hg4 mi
6:02 AM65 °FFog.8 mph94%30.06 "Hg6 mi
5:53 AM65 °FMostly cloudy.7 mph94%30.04 "Hg10 mi
4:53 AM65 °FMostly cloudy.8 mph94%30.03 "Hg10 mi
3:53 AM65 °FOvercast.6 mph91%30.03 "Hg10 mi
2:53 AM64 °FOvercast.3 mph97%30.03 "Hg10 mi
1:53 AM64 °FPartly cloudy.3 mph97%30.03 "Hg10 mi
12:53 AM64 °FOvercast.No wind97%30.05 "Hg10 mi
11:53 PM
Sun, Nov 29
65 °FOvercast.3 mph94%30.05 "Hg10 mi
11:04 PM68 °FLight rain. Mostly cloudy.8 mph78%30.09 "Hg9 mi
10:53 PM69 °FMostly cloudy.9 mph73%30.06 "Hg10 mi
9:53 PM69 °FOvercast.10 mph76%30.06 "Hg10 mi
8:53 PM69 °FMostly cloudy.12 mph76%30.06 "Hg10 mi
Weather by CustomWeather, © 2015

See weather overviewHow to use our weather pages